Wind_Speed
23 23 23 23 23 23 23 23 23 23 23 22 21 21 20 19 18 17 17 17 16 13 11 10 11 11 11 11 11 13 13 14 12 11 13 13 12 14 16 17 17 17 15 12 10 11 14 16 17 17 16 15 16 17 17 16 17 19 17 16 17 16 16 15 15 14 12 12 12 12 12 12 13 13 13 13 12 11 10 9 10 10 8 8 8 9 9 7
23 23 23 23 23 23 23 23 23 23 23 23 22 22 22 21 20 19 19 19 19 17 15 13 12 12 13 12 12 13 13 14 12 13 15 14 12 12 15 18 18 18 18 17 15 15 16 19 20 20 19 18 18 18 18 17 18 18 17 17 18 16 16 16 15 14 13 13 12 12 12 12 13 13 13 13 11 10 9 9 10 9 7 7 8 9 9 9
22 22 22 22 23 23 23 23 23 23 23 23 23 23 22 22 22 21 20 20 20 20 19 17 15 14 14 13 13 14 14 14 12 14 16 15 14 14 15 18 18 18 18 20 21 19 19 21 22 22 23 22 21 19 19 18 18 18 17 18 18 16 17 17 16 15 13 13 13 13 13 13 14 14 13 12 11 10 9 9 9 8 6 7 8 9 9 9
21 21 21 21 21 21 22 22 22 22 22 22 22 22 22 22 22 22 21 21 21 21 21 20 19 17 16 16 15 15 15 14 13 15 17 16 15 15 16 18 19 19 18 18 20 20 19 19 20 21 22 24 23 21 20 19 19 19 18 18 17 16 17 17 15 15 14 14 14 15 14 14 14 14 13 12 11 11 10 9 8 7 6 6 7 7 8 9
20 20 20 20 20 20 20 20 21 21 21 21 21 22 22 22 22 22 22 22 21 21 21 21 21 20 19 18 17 17 17 16 15 15 17 16 16 16 18 19 18 19 19 18 19 20 19 19 19 19 20 21 22 22 21 21 20 20 19 18 17 17 17 16 15 15 14 13 13 13 14 14 14 13 12 11 12 12 11 10 8 7 6 5 5 6 7 8
19 19 19 19 19 19 19 19 19 19 19 20 20 20 21 22 22 22 22 22 22 21 21 22 22 22 21 21 20 19 19 18 17 16 17 16 16 17 19 20 17 17 19 20 20 20 20 19 18 18 19 19 20 22 23 23 22 21 20 19 18 18 17 16 15 15 15 13 12 12 12 13 13 11 10 10 11 11 11 10 9 8 7 6 6 6 6 8
18 18 18 18 19 18 18 18 18 18 18 19 19 19 20 21 21 21 21 21 21 21 22 22 22 22 22 23 22 22 21 20 18 17 16 17 17 18 20 21 18 17 18 20 21 20 20 20 20 20 20 20 21 22 23 23 24 23 21 21 21 20 19 18 17 17 16 14 13 13 12 12 12 10 10 10 10 10 10 10 9 8 8 8 8 8 7 7
17 18 18 18 19 19 18 18 18 18 18 18 19 19 19 19 20 21 20 20 21 21 22 22 22 23 23 23 24 24 23 22 20 18 17 18 18 18 21 21 19 19 19 20 22 24 24 24 24 23 22 22 22 22 23 24 24 25 24 23 23 22 21 20 19 18 16 16 16 15 14 13 11 10 10 10 10 10 10 9 9 9 8 8 8 8 8 8
18 19 19 19 20 20 20 20 20 20 19 19 19 19 19 19 19 20 20 20 20 20 21 21 22 23 23 24 24 25 24 23 23 22 20 19 19 20 21 22 21 20 21 22 23 24 25 26 27 27 26 25 24 24 26 26 26 26 26 26 25 24 23 22 21 20 19 18 17 17 16 14 12 11 11 11 12 12 11 10 9 9 8 8 8 8 9 10
18 19 20 20 21 21 21 21 21 21 21 22 21 20 20 20 20 20 20 20 20 20 21 21 22 22 23 23 25 25 25 24 25 24 23 22 21 21 22 22 22 21 22 23 23 24 26 29 30 30 29 28 27 28 29 28 27 27 27 27 26 25 25 23 22 21 20 19 18 17 16 14 13 13 12 12 13 12 12 11 10 9 9 9 8 8 9 10
19 20 20 21 21 21 22 23 23 23 23 23 23 23 23 22 21 21 21 20 20 20 21 22 22 22 22 23 24 25 25 25 25 26 26 25 24 24 24 23 23 22 23 24 24 26 28 31 31 31 31 30 30 31 31 30 28 28 28 26 27 27 26 25 23 22 21 20 18 17 17 16 15 15 14 13 13 12 11 10 10 9 9 9 8 8 9 10
20 20 21 21 21 22 22 23 23 23 24 24 25 25 25 24 24 23 23 22 22 21 21 22 22 23 22 23 23 24 24 25 26 26 27 27 26 26 26 25 24 24 24 25 27 28 28 29 30 32 32 30 31 32 31 31 31 31 30 28 28 28 27 26 25 25 23 20 18 18 19 19 19 17 15 13 13 12 11 11 11 10 10 9 8 8 9 10
21 21 21 21 22 22 23 23 24 24 24 25 25 25 26 26 25 25 26 25 24 24 23 23 23 23 23 23 24 24 24 24 25 26 27 28 28 28 29 28 26 25 26 27 28 28 28 28 30 32 31 31 34 33 31 30 32 33 30 29 29 28 28 28 27 27 25 22 20 20 21 21 20 18 15 14 14 13 12 12 12 11 11 10 9 9 9 11
21 21 21 22 22 23 24 24 24 25 25 25 26 26 26 26 26 26 27 27 27 26 26 25 25 24 24 24 25 25 25 24 25 26 27 28 29 30 31 30 28 28 28 28 29 29 29 29 30 30 31 33 34 31 30 31 33 33 30 30 29 28 28 30 30 28 27 25 23 22 23 21 19 17 16 15 15 14 13 13 13 12 12 12 10 10 11 13
22 22 23 23 23 24 24 24 25 25 25 26 26 26 26 26 26 27 27 28 28 28 28 28 27 27 26 26 26 26 26 26 25 25 26 28 30 31 33 33 32 30 30 30 30 30 30 31 30 29 30 33 33 31 32 32 33 34 31 28 27 26 27 29 31 29 28 28 26 25 25 22 19 18 17 16 15 13 13 14 14 13 13 13 12 12 13 14
23 23 24 24 24 24 24 24 25 26 26 26 26 26 26 26 26 27 27 28 28 29 30 30 30 29 29 28 28 28 28 28 27 26 26 27 29 31 33 35 34 33 32 32 31 31 31 31 31 30 31 31 31 34 35 34 34 35 31 26 24 24 25 27 29 31 30 30 29 28 27 25 22 20 18 17 16 13 13 14 14 14 13 13 13 12 13 12
24 24 24 24 25 25 25 25 26 27 27 27 27 27 27 26 26 26 27 27 28 29 30 31 31 31 31 31 31 30 30 29 28 28 28 27 28 30 33 35 36 36 35 34 34 33 32 32 31 31 31 30 31 35 36 34 34 34 29 25 23 22 25 27 29 31 32 31 30 29 28 27 25 22 19 18 17 14 14 15 15 15 14 14 13 13 13 12
25 25 25 26 26 26 27 27 28 29 30 30 30 29 29 28 27 27 27 27 28 29 30 32 32 33 34 33 33 33 32 31 30 29 29 29 28 29 32 34 36 37 37 37 37 35 34 33 32 32 33 32 31 32 33 32 33 33 28 24 23 21 24 28 28 30 32 32 32 31 30 28 27 26 23 20 17 14 15 16 16 16 15 16 14 13 13 11
28 27 27 28 28 28 29 30 30 31 32 32 33 33 33 32 31 30 29 29 29 29 30 32 33 34 35 35 35 35 34 33 32 32 31 31 30 30 31 33 36 38 39 39 39 38 37 35 33 33 31 29 29 28 29 31 34 33 29 27 27 23 24 29 30 29 31 33 32 31 31 29 27 28 26 22 18 16 16 16 16 16 16 17 15 13 13 13
30 30 30 30 30 30 31 32 32 33 33 34 35 35 36 36 35 35 34 33 33 32 32 33 33 35 35 36 37 36 36 36 35 34 34 33 32 32 32 33 35 37 39 40 41 40 39 38 34 30 27 27 29 28 29 32 32 31 32 31 29 27 27 29 31 30 30 32 32 31 31 29 27 27 26 23 21 19 17 16 16 17 17 17 16 15 15 15
32 32 32 33 33 33 33 33 33 33 34 34 34 35 35 36 37 37 37 37 36 36 35 35 35 36 36 37 38 38 38 38 38 37 36 36 35 35 34 34 35 35 37 39 41 42 42 40 34 28 29 31 31 31 31 32 30 30 33 32 30 30 29 30 33 33 32 33 32 33 33 31 29 28 26 25 23 20 17 17 17 18 19 19 19 18 18 17
34 34 34 35 35 35 34 33 33 33 33 33 33 34 35 35 36 37 37 38 38 37 37 37 37 38 38 38 39 39 40 40 40 39 39 39 38 38 37 36 36 36 37 39 41 42 43 41 33 31 34 34 33 32 32 32 30 31 33 33 34 34 32 33 33 31 32 33 33 34 34 32 31 30 28 27 25 23 20 19 20 21 22 21 21 21 20 18
35 34 34 34 34 34 33 33 33 33 33 33 33 33 33 34 34 35 36 37 37 37 37 37 37 38 39 40 40 40 41 41 41 41 41 41 41 40 39 38 38 38 39 40 40 40 41 39 34 36 39 36 34 34 34 34 33 33 34 35 37 37 35 34 32 30 32 33 33 35 35 35 35 34 33 31 29 27 25 22 22 22 22 22 24 24 22 20
34 34 34 33 33 32 32 32 32 32 32 31 31 31 32 32 32 33 33 34 35 35 35 35 35 36 37 39 41 42 42 43 43 43 43 43 43 43 42 42 41 41 41 40 40 39 40 38 36 41 43 37 35 36 37 36 34 33 34 35 36 37 36 34 36 36 34 34 34 35 36 37 38 37 35 34 32 31 29 26 23 21 23 24 24 23 22 20
33 33 32 32 32 31 31 31 31 30 30 30 30 30 30 30 29 29 30 31 32 32 33 33 34 34 35 37 39 41 42 44 45 45 45 45 45 45 45 44 44 44 43 42 41 41 41 38 39 46 44 38 39 40 39 37 36 35 35 34 35 38 37 36 39 38 34 33 32 34 38 38 39 39 36 35 35 34 32 28 24 22 24 25 24 23 22 20
33 32 32 32 31 30 29 29 28 29 29 29 29 29 28 27 27 26 27 29 29 29 30 32 33 34 35 35 36 38 40 42 44 45 47 47 47 46 46 46 46 47 46 45 45 43 42 39 40 46 45 43 45 44 41 39 38 37 35 34 35 39 39 37 39 38 35 34 31 36 41 39 39 40 37 37 37 36 34 31 28 25 25 25 25 25 23 21
32 32 31 30 29 28 27 26 26 27 27 27 27 27 26 25 24 25 26 28 29 28 28 29 30 30 32 33 33 35 37 39 41 43 45 46 48 47 47 48 48 49 49 48 47 46 44 41 40 44 45 46 48 46 43 40 40 38 37 37 37 39 40 38 39 40 38 36 36 41 42 39 41 41 39 40 40 38 37 34 31 29 26 25 27 27 24 22
30 30 29 28 27 26 25 25 25 25 25 25 25 25 24 24 23 24 25 27 27 26 26 27 27 27 29 29 30 32 34 36 38 40 43 45 47 47 47 49 49 50 51 50 49 49 47 43 41 44 45 46 48 47 44 43 41 40 40 40 37 36 38 39 41 42 41 41 44 44 41 40 42 42 41 43 42 40 38 36 34 31 28 27 28 28 25 23
27 27 27 26 26 25 24 24 25 25 25 24 24 24 23 23 23 23 24 25 25 24 25 25 25 26 26 26 27 28 30 32 33 35 38 42 44 45 47 49 48 50 52 51 51 52 50 46 45 47 47 46 47 47 46 46 43 42 43 42 36 35 38 40 44 45 44 47 48 45 42 42 44 43 44 45 43 41 39 36 35 32 29 28 29 29 27 25
27 26 26 26 26 27 26 26 25 26 25 24 23 23 22 22 22 24 25 25 23 23 24 24 24 25 25 25 26 27 27 29 29 30 33 37 40 42 44 47 48 48 51 52 52 54 53 49 49 51 50 48 48 48 49 49 45 44 46 44 39 39 41 43 46 46 49 53 50 45 44 46 47 46 46 47 45 42 40 38 36 34 32 31 31 30 29 26
28 27 27 27 27 27 28 28 26 26 26 25 23 23 23 23 24 26 26 25 24 25 24 24 25 25 26 28 28 28 28 29 29 29 30 32 35 38 40 43 45 47 50 52 53 54 55 52 51 52 52 50 49 49 51 51 48 47 49 47 43 42 43 45 47 49 54 56 51 47 46 49 49 47 47 47 46 44 43 39 36 34 33 33 32 30 29 27
29 29 28 28 28 28 28 28 27 27 25 24 23 23 24 25 26 27 26 26 26 25 24 25 26 26 27 29 29 29 30 31 31 31 30 30 31 33 35 39 42 43 46 49 51 54 55 54 52 54 55 54 52 51 51 52 51 50 51 49 47 47 47 48 49 52 56 56 52 48 48 51 49 45 47 48 47 47 44 40 38 37 35 34 33 32 30 30
30 29 29 28 27 27 26 26 24 23 22 22 23 25 26 27 28 27 26 27 28 26 25 26 26 27 28 30 30 31 31 31 32 32 32 31 31 32 32 35 38 40 42 45 48 51 54 55 55 57 58 57 54 52 52 53 53 53 53 52 51 51 51 50 50 52 54 54 53 50 49 53 49 44 46 49 48 47 44 41 41 40 38 37 35 33 32 32
30 29 28 26 24 23 21 20 19 18 19 22 24 26 27 28 28 27 28 29 29 28 28 28 28 29 30 31 32 32 33 33 33 33 34 33 34 34 33 32 34 37 39 41 43 46 51 55 56 58 59 58 56 54 53 52 53 55 55 53 54 54 53 51 50 50 52 54 54 52 52 54 51 44 43 45 45 44 43 43 44 43 40 38 36 35 34 34
29 27 24 22 19 18 17 18 18 19 21 23 25 26 26 27 28 28 29 29 29 30 29 29 30 31 31 32 33 33 34 35 34 34 35 35 35 35 34 32 33 34 36 38 40 43 47 52 57 60 60 60 58 56 55 55 55 56 56 56 56 56 54 51 50 50 51 53 55 56 56 55 53 45 38 37 40 42 43 44 44 44 41 38 38 36 35 36
26 22 19 17 16 17 18 19 20 21 22 22 24 25 25 26 27 28 29 29 29 30 30 31 32 32 33 34 34 35 36 36 35 35 36 36 36 35 35 34 33 33 35 37 39 41 43 47 56 61 60 61 61 59 58 57 55 55 58 60 56 53 54 53 52 51 53 55 56 57 57 54 54 47 36 33 36 40 44 43 43 43 41 40 39 36 35 37
22 19 18 18 18 19 19 20 20 20 21 22 23 24 25 25 26 27 28 28 29 29 29 31 32 32 34 37 37 38 38 38 38 38 38 39 38 37 36 35 35 35 35 36 38 39 39 43 53 58 58 61 62 61 60 58 55 52 53 57 56 54 54 55 54 53 56 57 56 57 57 54 52 47 38 33 33 38 42 42 41 42 42 41 39 37 37 38
19 19 19 19 18 18 19 19 20 20 21 22 23 24 24 24 25 25 26 27 28 29 29 32 33 33 35 38 40 41 41 42 43 41 41 42 41 40 39 39 38 38 38 38 38 39 38 40 47 52 54 58 61 61 61 60 59 54 49 50 56 58 57 58 59 58 59 59 57 57 58 56 51 45 42 37 32 34 40 41 41 41 42 42 39 37 38 38
18 18 18 17 18 19 19 20 20 20 20 21 21 22 23 23 24 25 26 27 27 29 30 32 33 35 36 39 42 43 43 45 46 45 45 46 45 43 43 42 41 39 39 40 40 39 39 39 43 48 51 54 58 60 61 61 60 60 56 52 54 57 57 59 60 59 59 59 58 57 58 58 52 44 43 40 33 33 37 40 41 41 42 42 40 38 39 39
18 17 17 18 19 19 19 18 18 18 19 20 21 23 24 25 25 26 26 27 28 29 31 33 34 37 39 40 42 45 45 46 47 48 48 49 49 48 47 47 45 43 41 40 41 41 41 41 43 46 50 52 53 56 60 61 58 59 63 61 57 54 53 56 60 60 60 60 59 57 56 56 52 44 43 40 34 33 36 38 41 43 43 42 40 39 40 41
18 18 18 18 18 18 17 17 17 18 19 21 23 25 26 27 28 27 27 28 29 30 32 34 36 39 41 42 44 46 46 47 49 49 51 52 52 52 52 50 48 47 45 43 44 44 43 44 44 47 51 50 47 51 57 59 56 56 61 64 62 55 49 54 62 63 62 62 61 59 56 54 51 45 42 41 36 35 37 39 41 43 44 43 41 41 41 42
19 18 17 17 17 17 17 17 18 19 22 24 26 27 29 30 30 29 29 29 30 31 33 35 36 38 40 41 42 44 44 46 47 48 50 52 53 55 54 52 52 51 50 48 48 46 45 45 45 46 51 49 45 48 56 61 61 61 62 63 63 58 51 53 60 63 63 63 62 61 58 57 53 46 41 40 38 37 38 40 42 43 43 43 42 42 42 43
16 15 15 16 17 17 18 19 20 22 23 25 27 29 30 30 31 30 31 31 32 33 35 37 37 37 38 39 40 41 41 42 43 45 47 48 51 52 52 52 53 52 52 52 52 50 46 46 46 45 48 49 45 46 53 58 61 64 64 63 61 59 54 52 57 63 65 64 62 62 63 60 53 46 41 37 36 38 40 41 43 44 44 44 43 43 43 43
14 14 15 17 18 19 20 21 22 23 25 26 28 29 29 30 30 31 32 33 35 37 38 39 38 37 36 36 37 37 36 36 37 39 40 41 45 48 48 49 51 51 52 53 53 52 49 48 48 46 47 48 46 46 50 54 59 63 63 62 63 62 60 61 64 66 68 67 61 57 59 61 56 47 40 36 35 38 40 41 43 45 46 46 46 45 45 43
14 15 16 18 20 20 21 23 24 25 26 27 28 28 29 29 29 31 32 34 37 40 40 39 36 33 31 30 29 29 30 30 30 31 32 34 38 41 43 45 47 49 50 51 52 52 51 51 51 49 49 48 45 47 50 50 54 58 59 62 67 66 65 68 69 68 69 69 65 55 46 48 54 51 41 35 36 37 39 42 44 45 46 47 47 46 46 44
16 16 18 20 21 21 23 24 25 26 26 28 28 28 28 29 29 30 33 36 38 38 36 32 29 26 24 23 22 21 22 23 24 25 27 29 31 33 35 38 42 45 47 49 50 51 53 53 52 51 51 49 46 48 51 48 49 56 61 67 70 69 68 68 69 70 70 67 68 64 49 41 49 53 43 36 37 37 37 41 44 46 48 49 49 48 47 46
17 17 19 22 22 23 24 25 25 26 27 28 28 28 28 28 29 31 34 36 35 33 29 25 22 19 17 17 16 16 15 16 17 19 22 25 27 28 28 31 36 40 43 46 48 50 53 53 53 53 53 51 50 50 52 51 51 57 66 71 72 70 70 70 70 71 71 69 68 67 61 54 54 52 45 40 40 39 39 42 46 50 52 53 52 52 51 49
17 18 20 23 24 24 25 25 25 26 27 27 28 28 28 29 30 32 34 33 31 27 24 20 17 15 13 13 13 14 14 15 17 18 19 22 25 25 24 25 28 33 37 42 45 49 52 53 53 55 55 54 53 52 52 52 53 56 64 69 71 71 71 71 71 71 72 74 70 64 64 63 57 52 48 44 42 41 41 44 50 53 54 55 55 54 53 51
18 19 21 23 24 24 24 24 25 26 27 28 28 28 29 30 31 32 32 29 27 24 21 17 15 13 12 12 12 12 13 14 15 17 18 20 22 24 25 24 25 28 31 35 40 45 50 52 54 56 57 56 54 52 52 52 52 55 61 66 69 71 71 71 72 73 72 74 71 66 67 63 54 51 49 44 41 41 40 42 48 53 55 56 56 56 55 53
19 20 23 24 24 24 24 24 26 27 28 28 29 29 29 31 31 29 28 27 25 22 18 15 14 13 12 10 10 10 11 11 12 14 15 17 19 22 25 25 26 27 30 32 35 40 45 50 54 57 59 58 54 53 54 53 51 53 58 64 67 69 71 71 72 73 73 73 72 70 70 64 55 51 48 44 41 41 40 40 45 51 55 56 57 58 57 56
20 22 24 26 25 25 25 25 26 28 28 28 29 30 30 31 29 26 24 24 22 19 15 13 12 12 10 9 9 9 9 9 10 11 13 13 15 18 22 26 28 30 32 34 36 37 39 45 51 55 58 59 56 54 55 54 53 53 57 62 66 68 70 71 71 71 72 73 72 71 71 66 57 52 48 45 44 42 41 42 45 50 55 56 58 60 59 58
21 23 25 26 26 26 26 26 27 28 28 28 29 30 30 30 27 22 21 21 20 16 13 11 10 10 9 8 9 9 9 9 9 10 10 10 12 15 17 22 28 31 33 35 36 36 35 38 43 49 54 57 57 56 54 53 55 56 57 60 65 68 69 69 70 70 71 70 67 67 70 66 58 53 49 46 45 44 43 43 44 49 54 57 58 60 60 59
Wind_Direction
286 285 285 285 284 284 283 282 282 281 281 280 279 278 277 276 274 272 273 275 274 273 269 268 270 268 261 256 255 249 242 236 228 223 227 227 218 208 200 196 199 207 209 208 207 202 200 199 204 206 201 195 192 192 192 192 187 184 187 193 192 186 184 185 186 185 186 187 188 195 192 186 189 191 194 197 199 201 200 196 196 201 205 203 198 191 177 165
286 285 285 285 284 284 283 283 282 281 281 281 280 278 277 275 274 272 270 270 271 270 268 264 263 266 264 259 256 255 250 243 232 225 227 227 223 214 211 209 206 205 201 201 206 204 200 198 202 205 205 202 196 194 196 199 196 194 197 198 198 193 190 192 192 191 192 194 194 197 199 196 196 198 201 202 202 201 200 202 206 216 224 225 213 201 190 173
287 286 286 285 284 284 284 283 282 281 281 280 280 279 278 276 274 273 270 268 267 268 267 264 260 259 261 261 257 256 253 248 237 232 231 226 223 218 214 216 216 216 206 201 204 204 201 198 199 201 202 203 200 196 197 202 203 201 202 201 198 191 191 192 191 194 197 202 203 199 201 204 204 203 203 203 202 203 204 205 214 227 235 237 230 217 203 183
288 287 286 286 285 284 284 283 282 282 281 280 279 278 277 276 275 273 271 269 266 265 265 264 261 257 256 258 258 256 253 249 242 238 237 229 224 223 220 217 215 218 218 211 209 208 207 204 204 204 203 203 201 198 198 202 205 205 204 203 197 189 191 193 192 195 198 204 207 203 204 209 211 210 207 205 206 209 212 211 216 224 227 234 240 235 220 200
291 290 289 288 287 286 285 284 284 283 282 280 279 278 276 275 274 273 271 269 267 265 264 263 261 258 255 254 254 255 254 250 244 242 242 235 227 226 227 225 217 216 218 216 216 215 213 210 210 211 211 208 204 203 202 203 207 208 206 204 200 192 192 195 197 195 194 196 198 202 208 212 215 216 214 213 212 213 213 212 211 210 210 227 242 242 236 224
295 293 292 291 289 288 287 286 286 285 284 283 281 279 278 276 274 272 271 269 268 266 263 262 261 258 256 254 251 251 253 251 247 243 243 241 233 229 232 231 223 219 219 215 215 219 220 216 213 214 216 214 211 210 208 205 208 211 209 207 203 198 196 198 200 196 192 192 194 201 208 212 215 219 222 221 217 213 209 206 204 204 199 210 225 229 234 232
296 295 294 292 291 290 289 288 286 285 285 283 282 281 280 279 277 274 272 270 268 266 263 261 260 258 256 255 252 251 251 251 249 246 245 245 240 235 235 234 226 221 222 219 213 214 221 223 219 217 216 215 215 215 215 211 211 213 212 211 208 204 201 199 199 198 197 197 199 201 203 207 213 220 227 230 228 220 212 206 205 207 205 211 221 228 229 225
296 295 294 292 292 290 289 288 286 285 283 283 281 281 280 280 279 277 275 273 271 268 265 261 259 258 256 255 253 251 250 249 250 249 246 245 244 239 238 237 230 222 221 222 216 210 211 216 220 218 215 214 213 215 218 216 214 215 214 215 213 209 207 203 200 198 202 205 203 203 203 204 212 221 226 228 233 228 221 216 210 212 213 221 227 235 231 213
293 292 291 290 289 289 287 286 285 283 282 281 280 279 278 278 278 278 278 277 274 272 269 265 261 258 256 255 254 252 250 248 248 247 244 243 242 240 239 238 233 224 220 221 220 215 210 211 216 217 215 212 210 211 217 217 214 215 215 215 216 214 211 209 203 199 202 209 208 207 207 207 211 220 222 223 228 227 225 221 213 214 218 223 228 233 234 213
293 292 291 289 288 287 285 284 282 281 280 278 278 277 276 275 275 276 277 276 275 274 272 269 265 261 258 256 254 253 250 247 246 244 242 240 240 240 238 238 236 228 223 221 221 219 214 211 212 214 215 213 209 207 211 216 215 215 215 214 217 217 216 214 209 203 203 211 213 210 211 211 212 217 222 227 231 229 228 226 215 214 217 219 222 223 235 224
295 293 292 291 289 287 286 284 282 281 279 277 276 275 273 273 272 272 272 272 272 272 272 271 269 266 262 259 256 254 251 247 245 243 242 240 240 241 239 237 237 232 227 224 221 220 218 216 214 214 214 214 214 210 208 211 214 217 216 212 215 216 216 216 213 208 207 213 214 210 212 215 212 213 221 229 234 234 233 230 218 214 213 212 217 218 231 229
294 293 292 291 290 289 287 286 284 282 280 279 277 275 273 272 271 270 269 268 268 268 268 269 269 269 266 263 260 256 252 248 245 243 241 240 239 241 241 237 235 234 230 227 225 223 222 222 220 218 217 215 218 217 212 210 212 217 216 212 214 213 212 213 213 211 211 215 212 207 213 218 214 211 214 222 228 232 232 229 220 212 207 207 216 217 222 224
293 292 291 291 290 289 289 288 286 285 283 281 279 277 275 273 271 270 268 267 266 264 264 264 265 266 266 264 263 259 254 250 247 243 240 239 238 239 241 239 234 234 232 229 228 227 225 225 225 224 221 217 219 221 218 215 214 217 216 213 214 212 209 210 212 212 212 213 210 208 214 218 218 209 204 213 222 227 230 227 222 212 207 209 216 216 212 215
292 290 288 288 288 288 288 287 287 286 285 284 283 281 278 276 274 271 269 267 265 263 262 261 260 261 262 263 263 261 258 253 249 245 240 238 237 236 239 240 236 233 233 232 230 229 227 226 227 226 224 223 225 225 222 221 220 220 220 216 214 212 208 208 210 211 211 212 208 208 214 217 219 211 200 208 217 224 229 228 226 218 213 214 215 213 209 211
290 288 286 285 285 285 286 287 287 287 287 286 285 283 282 280 277 274 271 269 266 264 261 259 257 256 257 258 259 260 259 256 252 248 243 239 237 235 236 238 237 234 233 233 232 231 229 227 227 227 226 228 229 227 224 224 224 224 225 222 216 212 209 209 210 209 211 212 207 207 214 216 219 215 205 206 213 219 225 228 230 224 217 216 213 210 213 215
288 287 286 285 285 285 285 286 288 289 289 289 288 286 285 282 281 278 275 272 269 266 263 260 257 255 254 253 254 256 256 256 254 251 247 242 239 236 236 237 237 235 234 234 233 232 231 229 227 226 227 228 228 228 228 227 227 227 228 228 222 215 210 211 212 209 211 214 209 209 213 213 216 216 208 204 206 212 223 231 233 227 218 215 212 209 216 220
289 288 288 288 286 286 285 286 287 288 289 289 289 288 286 284 282 281 279 276 273 269 266 262 259 256 253 251 251 251 252 253 254 253 250 246 242 239 237 236 237 236 234 234 233 233 232 231 228 227 228 227 226 229 231 231 231 232 231 232 230 219 210 212 214 211 212 214 212 212 215 215 214 214 211 206 202 207 223 231 231 227 220 214 209 208 215 219
289 291 291 291 289 288 287 287 287 288 288 288 287 287 286 285 283 281 280 278 276 273 270 266 263 259 255 252 250 249 249 249 250 250 250 248 245 241 240 238 237 236 235 234 234 234 233 231 229 228 228 227 227 230 234 236 236 236 235 236 236 226 213 214 218 214 212 215 213 213 217 217 213 210 211 210 201 207 224 228 229 229 223 215 208 207 211 212
289 291 293 293 293 292 291 290 289 288 288 288 287 286 284 282 281 281 280 279 277 274 271 268 265 262 259 255 252 249 247 247 247 246 247 247 246 243 241 239 238 237 236 235 234 234 234 232 229 228 228 230 232 232 234 236 236 235 235 234 234 229 219 217 220 216 211 214 215 213 218 220 215 211 214 212 202 210 225 226 230 233 226 218 209 207 210 210
289 290 292 293 294 294 293 291 289 288 287 288 288 287 284 282 280 279 280 280 280 277 274 270 266 263 260 257 254 251 248 246 245 244 244 244 244 243 241 240 239 238 237 237 236 235 235 234 230 229 229 231 233 231 231 233 232 232 233 232 231 230 224 220 223 219 211 214 215 213 217 222 220 216 218 214 206 211 223 227 230 230 225 218 212 208 210 213
290 289 289 291 293 293 293 291 289 288 287 287 288 288 286 285 283 281 279 279 279 278 275 271 267 263 260 257 254 252 250 247 245 243 243 242 242 242 240 240 240 239 239 239 237 235 235 235 231 227 227 227 228 228 229 231 229 228 231 232 232 232 228 225 226 222 215 214 215 214 216 221 224 221 219 216 211 211 218 226 228 224 220 216 214 211 212 215
292 291 290 290 292 292 292 291 290 289 289 289 288 288 287 286 285 283 282 280 278 277 274 271 267 262 259 256 253 252 251 249 246 244 243 242 241 240 240 240 240 239 239 238 238 236 235 235 230 227 227 226 226 226 228 230 227 224 225 226 229 231 229 228 228 224 221 218 215 216 216 217 223 224 222 219 215 211 211 219 225 221 218 215 214 213 213 213
295 294 293 292 292 293 293 293 293 292 292 292 291 290 289 287 286 285 283 281 279 277 273 270 266 262 258 255 252 250 249 248 247 245 244 242 241 241 239 239 239 239 238 238 238 238 237 234 228 228 229 226 225 226 227 229 226 223 222 220 222 227 228 229 231 229 226 223 218 219 218 215 219 222 221 219 216 213 208 212 221 220 218 218 217 217 216 210
298 298 297 296 296 296 296 296 295 295 295 295 293 292 289 287 286 284 282 280 278 275 272 269 265 261 257 254 251 249 247 246 245 245 244 243 242 241 238 237 237 237 238 238 238 237 237 232 226 228 228 225 225 226 226 227 226 226 225 221 219 224 226 227 232 231 228 225 220 220 221 215 217 221 221 217 216 216 211 209 215 219 220 223 224 225 225 217
302 301 301 300 300 300 300 298 297 297 297 295 293 291 289 286 284 281 280 278 276 273 271 268 265 262 258 255 252 249 247 245 244 243 242 242 241 239 239 237 236 236 237 236 236 235 235 230 226 229 227 222 225 226 225 226 225 226 226 224 220 222 223 224 231 233 230 229 224 224 225 217 215 221 221 217 214 216 215 211 209 215 221 225 227 230 232 227
304 305 305 304 303 303 301 299 298 298 296 293 291 289 287 284 281 279 277 276 274 272 271 269 267 264 261 258 255 252 249 247 244 243 241 240 240 238 238 237 235 235 234 234 234 233 232 229 227 230 227 220 223 224 223 224 224 223 223 224 222 221 220 220 228 233 232 232 232 230 226 216 214 219 220 219 215 215 217 214 209 211 218 223 226 229 231 230
307 307 307 306 305 304 302 299 298 296 293 291 290 288 285 283 280 279 278 276 274 273 271 269 268 266 263 260 258 255 252 249 246 244 242 239 239 237 236 235 234 234 233 232 233 233 231 228 226 231 229 224 223 223 222 222 223 223 222 222 222 221 219 216 222 230 230 229 232 230 222 214 214 216 217 220 217 214 215 215 212 211 213 218 224 228 229 229
308 308 308 307 306 304 300 297 294 290 288 287 286 286 285 285 284 282 280 277 276 274 271 268 266 265 264 262 260 257 255 251 248 246 244 241 238 236 235 234 232 232 233 231 232 233 230 226 225 229 230 227 226 224 222 222 222 222 221 221 221 222 220 217 218 224 227 228 229 230 223 216 215 214 215 218 216 214 215 215 215 213 210 213 220 225 227 225
309 308 307 306 304 301 297 294 289 285 284 283 283 284 286 287 286 284 281 279 278 275 271 269 267 265 266 265 263 261 259 255 251 247 245 242 240 236 235 234 231 231 232 230 229 230 228 224 223 225 227 226 225 224 222 222 221 221 221 220 220 222 220 218 218 220 223 225 224 226 226 221 216 213 215 217 216 215 215 215 217 215 210 209 216 222 224 222
308 306 305 302 300 298 295 293 289 284 281 279 280 283 286 287 288 288 285 282 279 274 271 270 268 268 267 266 263 260 259 258 255 250 246 243 241 237 235 234 232 230 231 229 227 229 227 222 221 224 225 224 224 222 221 221 219 220 222 219 218 221 219 218 219 219 222 223 218 218 225 227 217 210 213 215 214 216 216 215 217 217 212 208 212 219 221 220
306 305 303 300 297 296 295 294 292 286 279 275 278 282 284 287 289 289 287 284 280 276 274 271 268 266 265 263 260 257 255 255 255 253 249 245 242 239 235 233 232 230 230 229 227 228 227 223 221 224 224 223 222 221 220 220 218 219 222 219 217 220 220 219 219 219 223 225 220 214 220 228 219 208 211 214 213 215 217 215 216 219 215 209 210 216 219 220
306 304 302 300 298 297 296 295 293 289 281 274 277 283 287 289 289 287 286 284 280 278 274 269 266 262 260 259 257 255 251 249 250 249 247 246 244 241 237 234 232 230 230 229 227 227 227 223 220 223 224 222 221 220 219 219 217 218 221 219 217 219 220 220 219 221 225 228 225 218 218 226 221 208 210 214 212 214 215 213 214 217 216 210 208 212 217 218
307 306 304 302 300 298 298 296 294 291 283 277 281 286 289 290 289 287 285 281 279 277 272 267 263 260 258 256 254 253 250 247 246 245 244 243 243 241 238 235 233 231 230 229 227 226 226 223 220 222 223 221 220 219 219 218 218 219 220 219 218 219 220 220 219 222 227 229 229 223 221 227 225 212 210 212 211 212 213 213 214 215 214 209 207 210 214 216
310 309 306 304 301 300 299 298 296 291 284 282 285 289 290 290 289 287 284 280 278 276 271 267 263 259 256 254 252 251 249 247 245 244 244 242 241 240 238 236 234 233 232 231 229 226 225 224 221 221 223 221 219 219 219 218 218 219 220 220 220 220 220 220 220 223 227 231 232 228 224 228 229 219 212 210 209 210 212 213 214 215 213 208 206 208 210 213
312 310 307 305 303 302 300 300 299 295 290 290 290 291 290 289 288 285 283 281 278 274 271 268 265 261 257 254 251 249 247 246 244 243 243 243 243 241 239 237 235 233 233 232 231 227 224 224 222 221 222 221 218 217 217 217 217 218 219 220 220 221 221 221 221 223 227 231 233 231 227 227 230 225 213 208 207 208 211 212 212 214 212 208 207 207 208 211
313 311 309 308 307 306 305 303 302 299 296 295 292 291 289 288 287 284 282 281 277 274 271 268 264 262 259 256 251 248 246 245 242 241 241 241 242 242 240 239 237 235 234 233 233 230 226 225 222 220 221 221 218 217 216 216 216 218 220 220 219 221 222 222 223 224 227 230 232 234 232 229 231 229 218 208 205 208 212 212 211 212 210 208 207 206 206 210
314 314 315 315 313 311 309 306 303 300 297 295 292 291 289 288 286 284 283 281 279 276 273 269 266 262 259 257 252 248 246 245 243 241 242 240 239 240 241 240 240 238 236 236 236 232 229 227 223 220 222 223 219 217 216 216 215 216 220 220 219 220 221 221 222 223 227 230 231 235 236 232 230 230 224 215 207 208 214 213 211 212 211 209 207 204 205 209
319 320 321 320 316 313 310 307 304 301 298 296 294 292 291 289 287 286 284 282 279 276 273 270 267 263 260 258 255 251 248 248 246 243 243 242 240 240 241 241 240 239 239 238 238 235 232 231 227 224 225 224 221 219 218 216 214 214 217 218 218 220 221 220 220 220 224 228 230 234 237 233 228 225 225 220 208 207 214 214 212 212 212 211 207 204 206 209
326 325 324 322 317 313 312 310 309 306 303 301 300 298 297 295 293 291 288 284 280 276 272 270 267 264 261 258 257 255 252 251 250 247 246 244 242 241 242 242 240 239 239 238 238 237 234 232 230 228 228 225 222 221 219 217 214 213 215 216 216 218 220 221 221 221 223 227 230 234 237 235 228 222 223 220 207 206 213 214 212 212 213 212 208 205 207 210
331 328 327 324 320 320 320 319 317 313 311 309 309 308 306 304 301 297 293 288 283 279 275 272 268 265 261 258 257 256 254 253 252 250 248 247 245 243 243 243 243 240 239 238 238 237 234 232 230 231 230 226 224 223 220 218 217 215 215 216 216 216 218 220 220 220 223 226 230 232 236 237 231 222 222 220 207 206 213 213 210 210 212 212 209 208 209 212
334 332 331 329 329 330 329 326 324 322 320 320 319 316 314 310 306 302 297 292 287 283 279 275 271 267 264 262 260 257 255 254 253 251 250 249 247 245 243 244 244 243 241 239 238 235 233 231 229 230 230 227 226 224 220 218 218 216 216 217 218 217 216 218 219 218 220 224 228 231 234 237 232 221 220 221 210 204 210 212 210 210 211 211 210 210 211 213
336 335 335 336 336 336 334 333 332 330 327 326 323 321 318 314 310 306 301 296 291 287 282 278 274 270 268 266 264 262 259 257 255 252 251 250 248 246 244 244 244 244 242 241 239 236 233 232 229 230 230 228 227 226 221 218 218 216 214 215 217 219 218 219 220 219 220 223 227 230 232 234 230 220 217 221 215 206 206 210 210 209 210 211 211 212 213 213
340 341 341 342 342 341 341 341 338 334 330 328 325 323 320 316 312 307 302 298 293 289 285 281 279 277 274 271 269 267 265 261 258 255 253 252 250 247 245 243 243 243 242 240 239 236 233 232 230 228 229 229 229 228 224 220 219 218 215 213 215 217 217 218 218 219 220 221 225 230 232 232 229 220 216 218 217 210 207 209 209 207 207 208 209 211 212 213
350 350 349 349 349 349 349 346 342 337 334 331 327 324 320 315 311 307 303 299 294 291 291 290 289 287 283 278 273 268 265 262 260 258 255 254 252 249 245 243 241 241 240 238 238 235 232 230 228 226 226 227 228 229 227 223 220 218 217 215 213 213 215 217 217 217 218 219 222 227 232 233 229 222 216 216 217 213 207 207 209 207 206 206 205 208 210 211
0 359 357 357 355 354 353 349 345 341 337 333 329 325 321 316 312 308 304 300 297 296 297 298 297 293 288 282 273 264 258 255 254 253 252 252 252 249 246 244 241 239 238 237 236 234 231 229 227 224 223 223 224 226 226 224 220 217 218 219 215 211 214 217 217 219 219 219 221 223 227 230 227 222 215 214 217 212 205 205 207 207 207 206 205 207 209 210
3 3 1 1 359 355 353 351 347 343 339 335 331 327 323 319 315 312 307 304 303 303 304 304 300 295 287 277 268 258 252 249 244 243 243 245 247 247 245 243 241 240 238 237 235 233 230 228 226 224 222 220 221 223 223 222 219 216 216 219 217 212 213 215 217 219 219 219 222 224 224 224 223 219 214 213 216 212 204 203 204 205 205 206 206 207 208 209
5 4 2 360 358 355 353 351 348 345 341 337 334 330 326 323 320 317 313 311 311 311 311 309 302 294 285 272 262 257 255 252 247 243 239 238 239 241 241 240 240 240 239 238 236 233 231 228 226 224 222 221 222 223 222 220 218 216 217 218 217 213 213 214 216 218 219 219 221 224 226 225 222 219 212 210 214 212 204 201 201 202 204 205 206 207 208 209
4 3 1 358 356 355 354 352 349 347 344 340 337 334 331 329 326 323 320 319 319 319 318 313 301 291 287 280 270 266 264 261 258 254 248 241 237 236 237 237 238 240 240 241 239 236 233 229 226 224 222 221 221 223 223 222 219 219 218 218 217 215 213 213 215 216 218 219 219 221 225 224 221 218 213 210 213 212 206 202 201 202 204 204 206 208 209 210
360 0 0 359 357 355 355 353 351 350 347 345 342 339 337 335 333 330 328 327 329 328 324 315 304 296 295 293 282 274 271 267 262 258 254 247 238 234 234 235 236 237 239 241 241 239 235 231 229 227 223 221 221 221 223 223 221 220 219 218 218 217 215 213 214 216 218 219 218 220 225 223 216 215 213 209 212 215 211 206 203 203 205 205 206 208 210 211
356 357 358 359 359 357 356 355 354 353 352 349 347 345 342 340 339 337 336 336 337 336 330 322 312 305 300 295 287 280 273 266 260 255 252 247 237 233 233 234 234 233 232 234 236 237 236 233 231 229 226 222 221 221 222 222 222 220 219 218 217 217 216 215 214 216 217 219 218 220 225 223 216 213 211 207 210 214 213 210 204 203 206 206 206 208 210 211
354 355 357 360 1 359 358 357 357 357 355 353 351 350 348 345 345 345 346 345 346 345 342 333 323 315 307 293 284 279 273 264 255 250 249 244 235 233 232 231 231 229 226 226 227 230 233 232 231 230 228 224 221 221 222 221 222 220 218 217 217 216 216 216 215 216 217 219 219 219 224 224 216 211 210 207 208 211 212 211 205 202 205 206 208 210 211 212
353 354 357 360 1 0 359 359 0 0 359 357 356 355 353 350 350 354 358 358 358 359 356 347 337 328 318 300 287 282 274 265 255 247 246 239 231 232 232 228 228 226 222 221 222 224 226 226 227 228 227 224 220 219 219 220 222 220 216 215 216 216 216 216 217 216 216 218 220 220 223 222 214 210 210 208 209 210 212 212 207 203 204 206 208 210 212 214
Height
5873 5873 5872 5872 5872 5871 5871 5871 5871 5871 5871 5871 5871 5871 5872 5872 5872 5873 5873 5872 5872 5873 5874 5874 5874 5874 5874 5874 5874 5874 5875 5876 5877 5878 5878 5878 5879 5880 5881 5882 5883 5884 5886 5888 5889 5889 5890 5892 5893 5894 5895 5897 5898 5899 5900 5900 5901 5901 5901 5902 5903 5904 5905 5905 5906 5906 5907 5907 5908 5908 5909 5910 5911 5911 5911 5912 5912 5913 5914 5915 5916 5916 5917 5917 5918 5918 5918 5919
5870 5870 5870 5869 5869 5869 5869 5869 5869 5868 5868 5868 5869 5869 5869 5869 5870 5870 5871 5871 5870 5871 5872 5872 5873 5872 5872 5873 5873 5873 5874 5874 5876 5876 5876 5877 5878 5879 5880 5881 5881 5882 5884 5886 5887 5887 5888 5890 5890 5892 5893 5895 5896 5898 5899 5899 5900 5900 5901 5902 5903 5904 5905 5905 5906 5906 5907 5907 5908 5908 5909 5910 5910 5911 5911 5912 5913 5914 5915 5915 5916 5916 5917 5917 5917 5918 5918 5918
5868 5868 5867 5867 5867 5866 5866 5866 5866 5866 5866 5866 5866 5866 5866 5866 5867 5868 5868 5868 5868 5868 5869 5870 5871 5871 5871 5871 5871 5871 5872 5873 5874 5874 5874 5876 5877 5878 5878 5879 5880 5881 5882 5883 5884 5885 5886 5887 5888 5889 5890 5892 5894 5896 5898 5899 5899 5900 5900 5901 5903 5904 5904 5905 5906 5906 5907 5907 5908 5908 5909 5909 5910 5910 5911 5912 5913 5914 5915 5916 5916 5916 5917 5917 5917 5918 5918 5918
5866 5865 5865 5864 5864 5864 5863 5863 5863 5863 5863 5863 5863 5863 5863 5863 5864 5865 5865 5866 5866 5866 5867 5867 5868 5869 5869 5869 5869 5870 5870 5871 5872 5873 5873 5875 5876 5876 5876 5877 5878 5879 5881 5882 5882 5883 5885 5886 5887 5888 5889 5891 5893 5895 5896 5897 5898 5899 5900 5901 5902 5903 5904 5905 5905 5906 5906 5907 5907 5908 5908 5909 5910 5910 5911 5912 5913 5913 5914 5915 5915 5916 5917 5917 5917 5918 5918 5918
5864 5863 5862 5862 5862 5861 5861 5861 5860 5860 5860 5860 5860 5860 5860 5860 5861 5861 5862 5862 5863 5864 5864 5864 5865 5866 5867 5867 5867 5868 5868 5869 5871 5871 5872 5873 5874 5875 5875 5875 5877 5878 5879 5881 5882 5883 5884 5886 5887 5888 5889 5891 5892 5894 5895 5896 5897 5898 5899 5901 5902 5903 5903 5904 5905 5905 5906 5906 5907 5908 5909 5909 5910 5911 5911 5912 5912 5913 5914 5914 5915 5915 5916 5917 5917 5917 5918 5918
5861 5861 5860 5860 5859 5859 5859 5858 5858 5858 5858 5857 5857 5857 5857 5857 5858 5858 5859 5859 5860 5861 5861 5862 5862 5863 5864 5864 5865 5866 5866 5867 5868 5869 5870 5871 5873 5873 5873 5874 5876 5877 5878 5879 5881 5882 5883 5885 5886 5887 5889 5890 5892 5893 5893 5894 5895 5896 5898 5899 5901 5902 5903 5903 5904 5905 5905 5906 5907 5908 5908 5909 5910 5911 5912 5912 5912 5912 5913 5913 5914 5915 5915 5916 5916 5917 5918 5918
5859 5859 5858 5857 5857 5857 5856 5856 5856 5856 5855 5855 5855 5855 5855 5855 5855 5855 5856 5856 5857 5858 5858 5859 5859 5860 5861 5861 5862 5863 5864 5865 5866 5868 5869 5870 5871 5872 5871 5872 5875 5876 5876 5877 5879 5880 5882 5883 5885 5886 5887 5888 5890 5891 5892 5893 5894 5895 5896 5898 5899 5900 5901 5902 5903 5904 5905 5906 5906 5907 5908 5909 5910 5911 5912 5912 5912 5913 5913 5913 5914 5914 5915 5915 5916 5917 5917 5918
5857 5856 5856 5855 5855 5854 5854 5854 5854 5853 5853 5853 5852 5852 5853 5852 5852 5853 5853 5854 5854 5854 5855 5856 5856 5857 5858 5858 5859 5860 5861 5863 5864 5866 5867 5868 5869 5869 5869 5870 5872 5874 5875 5875 5876 5877 5879 5880 5882 5883 5884 5886 5887 5889 5890 5891 5892 5894 5895 5896 5897 5899 5900 5901 5903 5904 5905 5905 5906 5906 5907 5908 5910 5910 5911 5912 5912 5913 5913 5913 5913 5914 5914 5915 5916 5916 5917 5917
5855 5854 5853 5852 5852 5851 5851 5851 5851 5850 5850 5850 5850 5850 5850 5850 5850 5850 5851 5851 5851 5852 5852 5852 5853 5854 5854 5855 5856 5857 5859 5861 5862 5863 5864 5865 5866 5867 5867 5868 5870 5871 5872 5873 5874 5875 5876 5878 5879 5880 5881 5882 5884 5886 5887 5888 5890 5891 5892 5894 5896 5898 5899 5900 5902 5903 5904 5904 5905 5906 5907 5908 5909 5910 5910 5911 5911 5912 5913 5913 5913 5913 5914 5915 5915 5916 5917 5917
5852 5851 5850 5849 5849 5848 5848 5847 5847 5847 5847 5847 5847 5847 5847 5848 5848 5848 5848 5849 5849 5849 5849 5849 5850 5851 5851 5852 5852 5854 5856 5857 5858 5859 5861 5862 5863 5864 5865 5866 5867 5869 5870 5871 5872 5873 5874 5874 5875 5876 5878 5880 5881 5882 5884 5885 5887 5889 5890 5893 5894 5896 5898 5899 5901 5902 5903 5904 5905 5906 5907 5908 5908 5909 5909 5910 5910 5911 5912 5912 5912 5913 5913 5914 5915 5915 5916 5916
5849 5848 5847 5846 5845 5845 5844 5844 5843 5843 5843 5843 5844 5844 5844 5845 5845 5846 5846 5846 5846 5847 5846 5846 5847 5848 5848 5849 5849 5850 5852 5854 5855 5856 5858 5859 5861 5861 5862 5864 5865 5866 5868 5869 5870 5870 5870 5871 5872 5874 5875 5877 5879 5880 5881 5883 5885 5886 5888 5891 5892 5894 5896 5898 5899 5901 5902 5903 5904 5906 5906 5906 5907 5907 5908 5909 5909 5910 5911 5912 5912 5912 5913 5914 5914 5915 5916 5916
5846 5845 5844 5843 5842 5841 5841 5840 5839 5839 5839 5839 5840 5840 5841 5841 5842 5842 5843 5843 5844 5844 5844 5844 5844 5844 5845 5846 5846 5847 5849 5850 5851 5853 5854 5856 5857 5858 5859 5861 5862 5864 5865 5866 5867 5867 5868 5869 5871 5872 5873 5876 5877 5878 5879 5881 5883 5883 5885 5888 5890 5892 5894 5896 5897 5899 5900 5902 5903 5905 5905 5904 5904 5904 5906 5907 5908 5909 5910 5911 5911 5912 5912 5913 5913 5914 5915 5916
5842 5841 5840 5839 5838 5837 5837 5836 5836 5835 5835 5835 5835 5836 5836 5837 5838 5838 5839 5839 5840 5841 5841 5841 5841 5842 5842 5843 5843 5844 5845 5847 5848 5849 5851 5852 5854 5855 5855 5857 5860 5861 5862 5863 5864 5865 5867 5868 5869 5870 5872 5874 5874 5875 5878 5880 5880 5881 5884 5886 5888 5890 5892 5894 5895 5897 5899 5900 5902 5903 5903 5902 5902 5903 5904 5906 5906 5906 5908 5910 5910 5911 5912 5912 5913 5913 5914 5915
5839 5838 5837 5836 5835 5834 5833 5832 5832 5831 5831 5831 5831 5832 5832 5833 5834 5834 5835 5835 5836 5837 5837 5838 5838 5838 5839 5839 5840 5840 5842 5843 5844 5845 5847 5848 5850 5851 5852 5853 5856 5857 5858 5860 5861 5862 5864 5865 5866 5869 5871 5871 5872 5875 5878 5878 5879 5880 5882 5884 5886 5888 5891 5892 5893 5895 5897 5898 5900 5901 5901 5901 5902 5902 5902 5904 5904 5904 5907 5909 5910 5911 5911 5912 5912 5913 5913 5914
5835 5834 5833 5832 5831 5830 5829 5829 5828 5827 5827 5827 5827 5827 5828 5829 5829 5829 5830 5831 5831 5832 5833 5833 5834 5835 5835 5836 5836 5837 5838 5839 5841 5842 5843 5845 5846 5847 5849 5850 5852 5854 5855 5856 5858 5859 5861 5863 5864 5867 5869 5869 5872 5874 5875 5876 5877 5878 5880 5882 5885 5887 5889 5890 5891 5894 5895 5896 5898 5899 5899 5899 5901 5901 5901 5902 5902 5903 5906 5908 5909 5910 5911 5911 5911 5912 5913 5913
5831 5830 5829 5828 5827 5826 5826 5825 5824 5823 5823 5823 5823 5823 5823 5824 5824 5825 5825 5826 5827 5827 5828 5829 5830 5831 5831 5832 5833 5833 5834 5835 5837 5838 5839 5841 5842 5844 5845 5846 5848 5850 5852 5853 5855 5856 5858 5860 5862 5864 5865 5867 5870 5872 5872 5874 5875 5876 5879 5882 5884 5887 5888 5889 5890 5892 5893 5894 5896 5896 5897 5898 5899 5900 5900 5900 5900 5902 5906 5907 5908 5909 5910 5910 5911 5911 5912 5913
5827 5826 5825 5824 5823 5822 5822 5821 5820 5819 5819 5819 5819 5818 5819 5819 5820 5820 5820 5821 5822 5823 5823 5823 5825 5826 5826 5828 5829 5829 5831 5832 5833 5835 5836 5837 5839 5840 5841 5842 5844 5846 5848 5849 5851 5852 5855 5857 5859 5861 5863 5865 5867 5868 5869 5871 5873 5874 5878 5882 5883 5886 5887 5887 5888 5890 5891 5892 5894 5895 5894 5895 5898 5899 5900 5900 5899 5901 5904 5906 5907 5908 5909 5909 5910 5911 5911 5912
5822 5821 5820 5819 5818 5818 5817 5817 5816 5815 5814 5814 5814 5814 5814 5814 5815 5816 5816 5816 5817 5818 5818 5818 5819 5820 5821 5823 5824 5825 5826 5828 5829 5831 5832 5833 5835 5836 5837 5838 5840 5841 5843 5845 5847 5849 5851 5853 5856 5858 5859 5862 5864 5866 5868 5871 5872 5874 5878 5881 5882 5884 5886 5886 5886 5887 5889 5890 5892 5893 5892 5893 5896 5898 5900 5899 5897 5899 5902 5904 5906 5908 5908 5909 5909 5910 5911 5912
5817 5817 5815 5814 5813 5813 5812 5812 5811 5810 5809 5809 5809 5809 5809 5809 5810 5811 5810 5811 5812 5812 5813 5814 5814 5814 5816 5817 5819 5820 5822 5823 5824 5826 5827 5828 5830 5832 5833 5834 5836 5837 5839 5841 5843 5845 5847 5850 5852 5855 5858 5862 5864 5865 5867 5868 5869 5872 5876 5878 5879 5881 5883 5884 5884 5885 5887 5888 5889 5891 5891 5892 5894 5895 5897 5897 5895 5898 5901 5903 5906 5907 5908 5908 5909 5909 5910 5911
5812 5812 5811 5809 5808 5808 5807 5807 5806 5805 5804 5804 5804 5803 5803 5803 5804 5805 5805 5805 5806 5807 5807 5808 5809 5809 5810 5812 5813 5815 5817 5818 5819 5821 5823 5824 5826 5827 5829 5830 5831 5833 5835 5837 5839 5841 5843 5845 5849 5854 5858 5860 5860 5862 5863 5863 5866 5870 5872 5874 5876 5878 5880 5881 5882 5883 5885 5886 5888 5890 5890 5890 5892 5894 5895 5894 5894 5897 5900 5902 5904 5906 5907 5908 5908 5908 5909 5909
5807 5806 5806 5804 5803 5803 5802 5801 5800 5800 5799 5799 5798 5798 5797 5798 5798 5798 5799 5800 5800 5801 5801 5802 5803 5803 5804 5806 5807 5809 5811 5812 5814 5816 5817 5819 5821 5822 5824 5826 5827 5829 5831 5833 5834 5837 5839 5841 5848 5853 5854 5854 5856 5858 5859 5860 5863 5866 5868 5871 5873 5874 5877 5879 5878 5880 5882 5884 5886 5887 5888 5889 5890 5892 5893 5893 5893 5896 5899 5901 5903 5904 5905 5906 5907 5907 5907 5908
5802 5801 5800 5799 5798 5797 5796 5796 5795 5794 5794 5793 5793 5792 5792 5792 5792 5791 5792 5793 5794 5795 5795 5795 5796 5797 5798 5799 5801 5803 5804 5806 5809 5811 5812 5814 5815 5817 5819 5821 5823 5825 5827 5827 5829 5832 5834 5839 5847 5850 5848 5849 5852 5854 5855 5857 5860 5862 5864 5867 5869 5871 5873 5875 5875 5877 5880 5882 5884 5885 5886 5887 5888 5889 5891 5892 5893 5896 5898 5899 5901 5902 5904 5905 5906 5906 5906 5907
5797 5795 5795 5794 5792 5791 5791 5790 5789 5788 5788 5787 5787 5786 5786 5786 5786 5786 5786 5786 5787 5788 5788 5789 5789 5790 5791 5792 5794 5796 5798 5800 5802 5804 5806 5808 5809 5812 5815 5816 5818 5820 5821 5822 5825 5828 5831 5837 5844 5843 5842 5845 5848 5850 5851 5853 5856 5857 5859 5862 5865 5867 5869 5872 5873 5874 5876 5879 5881 5882 5883 5885 5885 5886 5888 5890 5893 5894 5895 5897 5899 5901 5903 5905 5904 5904 5905 5906
5792 5790 5789 5788 5787 5786 5785 5785 5784 5783 5782 5782 5781 5781 5781 5780 5780 5780 5780 5780 5781 5782 5782 5782 5783 5784 5785 5786 5788 5790 5791 5793 5795 5798 5800 5802 5803 5806 5808 5810 5812 5813 5815 5818 5821 5824 5827 5833 5838 5835 5836 5842 5844 5845 5847 5849 5852 5854 5856 5859 5862 5863 5866 5870 5869 5868 5872 5875 5877 5879 5880 5882 5883 5884 5886 5889 5892 5892 5893 5895 5897 5900 5902 5903 5904 5905 5906 5906
5787 5785 5784 5783 5781 5780 5779 5779 5778 5777 5777 5776 5776 5776 5775 5775 5775 5775 5775 5774 5775 5776 5776 5776 5777 5777 5779 5780 5781 5783 5784 5785 5788 5790 5793 5795 5797 5799 5801 5804 5806 5807 5810 5813 5816 5819 5822 5828 5831 5828 5831 5838 5839 5840 5843 5845 5848 5851 5853 5856 5859 5860 5861 5865 5864 5865 5870 5871 5874 5877 5876 5878 5881 5882 5884 5887 5889 5890 5892 5894 5896 5898 5900 5902 5904 5906 5906 5907
5782 5780 5779 5778 5776 5775 5774 5773 5773 5772 5772 5771 5771 5771 5770 5770 5770 5769 5770 5770 5769 5770 5770 5770 5771 5772 5773 5774 5775 5776 5777 5778 5781 5783 5785 5788 5790 5792 5795 5797 5800 5801 5803 5807 5809 5812 5817 5822 5825 5823 5827 5832 5832 5835 5838 5841 5844 5846 5849 5853 5854 5855 5857 5860 5861 5862 5866 5868 5871 5871 5870 5875 5878 5879 5882 5884 5886 5888 5890 5892 5894 5895 5897 5900 5903 5904 5905 5906
5777 5775 5774 5773 5772 5771 5769 5769 5768 5768 5767 5766 5766 5766 5765 5765 5765 5765 5765 5765 5764 5765 5765 5765 5766 5766 5767 5768 5769 5770 5771 5772 5774 5775 5777 5780 5782 5786 5788 5790 5793 5794 5797 5801 5803 5807 5812 5817 5820 5819 5823 5826 5827 5831 5835 5837 5840 5842 5845 5847 5848 5850 5853 5856 5858 5858 5861 5865 5865 5863 5865 5871 5873 5875 5879 5880 5882 5885 5887 5890 5891 5893 5895 5898 5901 5902 5904 5905
5773 5771 5769 5768 5767 5766 5765 5764 5764 5763 5763 5762 5761 5761 5761 5761 5761 5760 5760 5760 5759 5760 5760 5761 5761 5762 5762 5763 5764 5764 5765 5766 5768 5768 5770 5773 5775 5778 5780 5782 5786 5787 5790 5795 5798 5801 5805 5811 5815 5815 5817 5821 5824 5827 5831 5833 5835 5838 5839 5840 5844 5848 5850 5852 5853 5853 5857 5859 5858 5858 5863 5866 5868 5872 5875 5875 5878 5881 5884 5887 5889 5891 5894 5896 5898 5900 5902 5904
5769 5767 5765 5764 5763 5762 5761 5760 5760 5759 5759 5758 5757 5757 5757 5756 5756 5756 5756 5755 5755 5755 5756 5756 5757 5757 5758 5758 5759 5759 5759 5761 5762 5763 5764 5766 5767 5771 5773 5775 5779 5780 5783 5789 5792 5793 5798 5805 5808 5808 5810 5815 5819 5823 5826 5828 5831 5834 5834 5836 5842 5844 5845 5847 5847 5848 5851 5849 5850 5856 5859 5860 5864 5869 5871 5872 5875 5879 5882 5885 5887 5889 5892 5894 5896 5898 5900 5902
5765 5763 5762 5760 5758 5757 5757 5756 5756 5755 5754 5754 5753 5753 5753 5752 5752 5751 5751 5751 5751 5751 5752 5752 5752 5753 5753 5754 5754 5755 5755 5756 5757 5758 5759 5760 5761 5763 5766 5769 5772 5774 5776 5781 5784 5786 5791 5798 5800 5801 5804 5809 5813 5817 5819 5822 5826 5829 5829 5833 5837 5838 5839 5841 5842 5844 5843 5839 5844 5852 5854 5855 5858 5863 5866 5869 5873 5877 5880 5883 5885 5887 5889 5891 5893 5895 5897 5900
5761 5759 5758 5756 5754 5753 5751 5751 5751 5750 5750 5750 5750 5749 5749 5748 5748 5747 5746 5746 5746 5747 5748 5748 5748 5748 5748 5748 5749 5750 5751 5751 5752 5753 5754 5755 5756 5757 5760 5762 5765 5768 5770 5773 5778 5780 5784 5791 5795 5797 5799 5803 5807 5810 5813 5816 5821 5823 5823 5828 5831 5832 5834 5836 5837 5838 5834 5833 5841 5849 5851 5850 5852 5859 5864 5866 5870 5874 5877 5881 5884 5885 5887 5889 5890 5893 5896 5898
5756 5755 5753 5751 5750 5748 5746 5745 5745 5745 5745 5745 5745 5745 5744 5744 5743 5742 5742 5741 5741 5742 5743 5743 5743 5744 5743 5743 5743 5745 5746 5747 5747 5748 5749 5750 5751 5753 5754 5756 5759 5762 5764 5767 5771 5774 5777 5785 5790 5790 5791 5796 5800 5804 5808 5811 5815 5817 5818 5822 5826 5827 5828 5830 5832 5832 5830 5833 5840 5846 5848 5844 5846 5856 5860 5862 5866 5869 5874 5878 5881 5882 5884 5886 5887 5890 5893 5896
5751 5750 5748 5746 5745 5743 5742 5741 5741 5740 5740 5741 5741 5740 5740 5739 5738 5738 5737 5737 5736 5737 5738 5738 5738 5738 5738 5738 5738 5739 5740 5741 5742 5743 5745 5746 5747 5748 5749 5751 5754 5756 5758 5761 5764 5767 5772 5778 5782 5782 5783 5789 5795 5799 5803 5806 5810 5812 5813 5817 5820 5821 5822 5825 5829 5830 5830 5832 5836 5843 5844 5839 5843 5852 5855 5857 5862 5866 5872 5875 5876 5878 5880 5882 5885 5887 5890 5893
5746 5744 5743 5741 5740 5739 5738 5737 5737 5737 5737 5737 5736 5736 5735 5734 5733 5733 5732 5732 5732 5732 5733 5733 5733 5733 5733 5733 5733 5734 5735 5736 5738 5738 5740 5741 5742 5743 5745 5747 5749 5751 5753 5755 5758 5762 5765 5769 5773 5775 5778 5783 5790 5795 5798 5802 5805 5806 5809 5813 5814 5816 5819 5823 5827 5829 5829 5830 5832 5837 5839 5836 5840 5847 5851 5856 5861 5865 5868 5870 5872 5874 5877 5880 5882 5883 5886 5890
5742 5740 5738 5737 5736 5736 5735 5734 5734 5734 5733 5733 5732 5731 5730 5729 5729 5728 5727 5727 5727 5727 5727 5727 5727 5727 5728 5728 5728 5729 5729 5730 5732 5733 5734 5735 5736 5738 5741 5743 5745 5746 5748 5750 5751 5754 5758 5762 5765 5767 5771 5777 5784 5788 5791 5794 5797 5801 5803 5805 5808 5813 5818 5821 5824 5826 5826 5827 5827 5829 5832 5834 5837 5843 5851 5856 5859 5862 5864 5866 5868 5871 5875 5877 5879 5880 5884 5888
5738 5736 5735 5734 5733 5732 5732 5731 5730 5730 5729 5728 5727 5727 5726 5725 5724 5723 5722 5722 5721 5721 5722 5722 5722 5722 5722 5722 5723 5724 5724 5725 5727 5728 5728 5729 5730 5732 5735 5737 5739 5741 5743 5744 5745 5749 5753 5755 5756 5761 5767 5770 5775 5780 5784 5788 5793 5796 5797 5799 5805 5812 5816 5818 5820 5822 5822 5822 5823 5823 5826 5832 5836 5841 5849 5854 5857 5860 5861 5863 5866 5868 5872 5874 5876 5879 5882 5885
5734 5733 5732 5731 5730 5729 5728 5727 5727 5726 5725 5724 5723 5722 5721 5720 5719 5718 5718 5717 5716 5716 5717 5716 5716 5717 5716 5716 5717 5718 5719 5720 5720 5722 5722 5723 5724 5726 5728 5731 5733 5735 5737 5739 5741 5744 5748 5749 5752 5758 5761 5761 5767 5773 5777 5782 5787 5790 5791 5797 5804 5807 5809 5811 5814 5817 5817 5817 5820 5820 5822 5829 5834 5840 5847 5851 5855 5858 5860 5862 5865 5866 5869 5871 5874 5877 5880 5883
5732 5730 5729 5728 5727 5726 5725 5724 5723 5722 5721 5720 5719 5718 5717 5716 5715 5714 5713 5712 5712 5711 5711 5710 5710 5711 5711 5710 5709 5711 5713 5713 5713 5716 5716 5716 5718 5720 5722 5724 5726 5729 5731 5734 5736 5739 5743 5745 5748 5751 5752 5754 5761 5766 5770 5774 5779 5783 5787 5792 5797 5798 5801 5803 5806 5810 5812 5813 5815 5816 5817 5823 5830 5838 5843 5847 5852 5856 5858 5860 5863 5865 5867 5869 5872 5875 5878 5882
5729 5728 5727 5725 5724 5723 5722 5721 5720 5719 5717 5716 5715 5714 5713 5711 5710 5709 5708 5707 5707 5706 5705 5704 5704 5704 5704 5703 5703 5703 5705 5705 5706 5708 5709 5708 5711 5713 5715 5716 5719 5723 5725 5728 5730 5733 5738 5740 5742 5743 5744 5748 5753 5757 5761 5767 5773 5777 5780 5783 5786 5790 5794 5798 5802 5807 5809 5810 5812 5814 5814 5818 5826 5835 5839 5843 5850 5853 5855 5858 5860 5863 5864 5866 5870 5874 5877 5879
5727 5725 5724 5722 5721 5719 5719 5718 5716 5715 5714 5712 5711 5709 5708 5707 5705 5704 5703 5702 5701 5700 5699 5698 5698 5697 5696 5696 5696 5695 5697 5697 5698 5700 5700 5700 5703 5705 5706 5708 5712 5716 5719 5722 5724 5727 5731 5733 5736 5737 5737 5742 5747 5750 5757 5764 5768 5772 5773 5775 5778 5783 5789 5793 5797 5802 5805 5806 5809 5810 5812 5815 5824 5832 5836 5840 5847 5850 5852 5855 5857 5859 5861 5864 5868 5871 5874 5877
5725 5723 5721 5719 5718 5717 5716 5715 5714 5712 5711 5709 5707 5706 5704 5702 5701 5699 5698 5697 5695 5694 5693 5692 5691 5690 5688 5689 5688 5687 5688 5689 5689 5691 5691 5691 5694 5695 5698 5702 5705 5708 5712 5714 5716 5719 5722 5725 5729 5730 5731 5737 5742 5745 5750 5754 5758 5762 5766 5770 5774 5779 5784 5786 5790 5796 5800 5801 5803 5806 5809 5813 5819 5828 5833 5837 5843 5847 5849 5851 5854 5856 5858 5861 5865 5868 5871 5874
5723 5721 5719 5718 5716 5715 5714 5712 5711 5709 5707 5706 5704 5702 5700 5698 5696 5694 5693 5691 5690 5688 5687 5685 5684 5682 5681 5681 5679 5679 5680 5680 5681 5682 5682 5682 5684 5686 5691 5695 5697 5699 5703 5706 5707 5711 5715 5719 5723 5725 5727 5732 5735 5737 5741 5745 5749 5754 5759 5764 5770 5774 5778 5781 5786 5792 5795 5797 5799 5801 5804 5809 5816 5824 5829 5833 5839 5843 5845 5847 5850 5853 5856 5860 5863 5866 5869 5871
5721 5719 5718 5716 5715 5714 5712 5710 5709 5707 5705 5703 5701 5698 5696 5694 5692 5689 5688 5686 5684 5682 5680 5677 5676 5674 5673 5673 5672 5671 5672 5671 5672 5674 5674 5674 5675 5678 5683 5686 5688 5691 5694 5696 5698 5703 5709 5713 5716 5721 5723 5726 5729 5732 5735 5740 5744 5749 5754 5759 5762 5766 5771 5775 5779 5784 5788 5792 5796 5797 5799 5805 5813 5820 5826 5831 5835 5839 5841 5844 5847 5850 5853 5857 5860 5863 5866 5868
5720 5718 5717 5715 5714 5712 5710 5708 5706 5704 5702 5700 5698 5695 5693 5690 5688 5685 5683 5681 5678 5675 5672 5669 5668 5666 5665 5664 5664 5664 5663 5663 5664 5666 5667 5667 5667 5670 5674 5676 5679 5682 5684 5687 5690 5696 5702 5706 5709 5714 5717 5720 5724 5727 5728 5732 5736 5742 5749 5752 5753 5757 5762 5766 5771 5776 5781 5786 5790 5792 5795 5801 5810 5817 5823 5828 5831 5834 5838 5841 5844 5847 5849 5852 5855 5859 5862 5865
5720 5718 5716 5714 5712 5711 5709 5707 5704 5702 5700 5697 5695 5692 5690 5687 5684 5681 5678 5675 5672 5668 5665 5662 5660 5659 5657 5656 5656 5656 5655 5656 5657 5658 5660 5660 5660 5662 5666 5668 5671 5673 5675 5679 5683 5689 5694 5696 5700 5706 5709 5714 5717 5718 5721 5726 5730 5736 5742 5743 5746 5751 5755 5761 5768 5772 5775 5780 5784 5787 5791 5798 5806 5813 5819 5825 5827 5830 5835 5838 5841 5845 5847 5850 5853 5855 5859 5862
5719 5717 5715 5713 5711 5709 5707 5705 5702 5700 5697 5695 5692 5689 5686 5683 5680 5677 5673 5670 5666 5662 5659 5656 5654 5653 5652 5650 5650 5650 5649 5650 5651 5652 5653 5654 5654 5656 5658 5661 5663 5665 5668 5672 5675 5680 5684 5687 5693 5698 5702 5707 5709 5710 5713 5718 5723 5728 5731 5733 5739 5746 5750 5756 5761 5764 5770 5777 5779 5782 5787 5793 5801 5808 5815 5821 5823 5826 5831 5835 5838 5841 5844 5847 5850 5852 5855 5858
5718 5716 5714 5711 5709 5707 5705 5702 5700 5697 5695 5692 5689 5686 5683 5680 5676 5673 5669 5665 5661 5657 5655 5652 5650 5648 5648 5647 5646 5646 5646 5647 5647 5648 5649 5649 5650 5651 5653 5656 5657 5659 5662 5664 5667 5672 5676 5680 5687 5691 5695 5700 5702 5704 5707 5711 5715 5720 5722 5725 5732 5739 5744 5749 5753 5758 5764 5769 5772 5777 5781 5786 5796 5804 5810 5815 5817 5820 5824 5827 5830 5834 5837 5841 5844 5847 5850 5852
5716 5715 5713 5710 5708 5705 5703 5700 5698 5695 5693 5690 5686 5683 5680 5676 5673 5669 5664 5660 5657 5654 5651 5649 5647 5646 5645 5645 5644 5644 5644 5644 5644 5645 5645 5645 5647 5648 5650 5651 5652 5654 5657 5659 5661 5665 5668 5674 5679 5682 5687 5691 5694 5698 5701 5705 5710 5713 5716 5721 5727 5733 5738 5742 5747 5753 5757 5759 5767 5773 5773 5779 5793 5801 5804 5809 5812 5815 5819 5821 5825 5828 5832 5836 5840 5843 5846 5849
5716 5714 5712 5709 5707 5704 5701 5699 5696 5693 5690 5687 5684 5680 5677 5673 5669 5665 5661 5657 5653 5651 5649 5647 5645 5645 5644 5643 5642 5642 5642 5642 5641 5642 5642 5642 5643 5645 5646 5647 5649 5651 5653 5655 5656 5659 5663 5668 5672 5674 5678 5683 5688 5693 5696 5699 5704 5707 5711 5717 5722 5727 5732 5737 5741 5745 5749 5753 5762 5767 5766 5774 5789 5795 5798 5806 5810 5813 5817 5819 5822 5825 5828 5832 5836 5839 5842 5845
5715 5713 5711 5708 5706 5703 5700 5697 5694 5691 5688 5684 5681 5677 5674 5670 5666 5662 5657 5654 5651 5649 5647 5645 5644 5643 5642 5641 5641 5640 5640 5640 5639 5639 5640 5640 5641 5642 5643 5644 5646 5648 5650 5651 5652 5654 5657 5661 5663 5666 5670 5677 5683 5688 5690 5694 5698 5702 5706 5710 5715 5720 5726 5731 5735 5740 5744 5749 5756 5761 5762 5770 5784 5790 5795 5803 5807 5809 5813 5816 5819 5823 5825 5829 5832 5834 5838 5840
5714 5712 5709 5707 5704 5701 5699 5696 5692 5689 5685 5682 5679 5675 5671 5667 5663 5659 5656 5652 5650 5648 5646 5645 5643 5642 5641 5640 5639 5639 5639 5638 5638 5638 5638 5638 5638 5639 5640 5641 5642 5644 5646 5647 5649 5650 5652 5655 5657 5660 5664 5672 5679 5682 5685 5689 5692 5695 5699 5703 5708 5714 5720 5726 5731 5735 5740 5744 5750 5756 5758 5766 5780 5788 5792 5798 5801 5804 5808 5811 5814 5818 5821 5825 5828 5831 5834 5836
5713 5711 5708 5706 5703 5700 5697 5694 5691 5687 5684 5680 5676 5673 5669 5665 5661 5658 5655 5652 5650 5648 5646 5644 5642 5641 5640 5639 5638 5638 5637 5637 5637 5636 5636 5636 5637 5637 5637 5638 5639 5641 5642 5644 5646 5647 5649 5651 5653 5656 5659 5666 5672 5675 5679 5684 5685 5686 5692 5699 5705 5710 5716 5723 5727 5730 5735 5740 5746 5751 5753 5762 5777 5784 5789 5794 5797 5800 5804 5806 5810 5814 5817 5821 5824 5827 5830 5833